START_TIME,STEP,MOV.,AL01,t_acc.,AL02,t_acc.,E37,t_acc.,H21,t_acc.
1980-11-14 21:00:22.880 ,5,0,0.,24.0,0.,24.0,0.,24.0,0.,24.0
1980-11-14 21:00:46.880 ,4,1,0.,24.0,0.,24.0,1.,24.0,0.,24.0
1980-11-14 21:01:10.880 ,4,0,0.,24.0,0.,24.0,2.,24.0,0.,24.0
1980-11-14 21:01:34.880 ,3,1,0.,24.0,0.,24.0,0.,24.0,0.,24.0
1980-11-14 21:01:58.880 ,3,0,0.,24.0,0.,24.0,0.,24.0,0.,24.0
1980-11-14 21:02:22.880 ,2,1,0.,24.0,0.,24.0,0.,24.0,0.,24.0
1980-11-14 21:02:46.880 ,2,0,0.,24.0,0.,24.0,0.,24.0,0.,24.0
1980-11-14 21:03:10.880 ,1,1,0.,24.0,0.,24.0,0.,24.0,0.,24.0
1980-11-14 21:03:34.880 ,1,0,0.,24.0,0.,24.0,0.,24.0,0.,24.0
1980-11-14 21:03:58.880 ,0,1,0.,24.0,0.,24.0,1.,24.0,0.,24.0
1980-11-14 21:04:22.880 ,0,0,0.,24.0,0.,24.0,0.,24.0,0.,24.0
1980-11-14 21:04:46.880 ,0,1,0.,24.0,0.,24.0,0.,24.0,0.,24.0
1980-11-14 21:05:10.880 ,0,0,0.,24.0,0.,24.0,1.,24.0,0.,24.0
1980-11-14 21:05:34.880 ,1,1,0.,24.0,0.,24.0,0.,24.0,0.,24.0
1980-11-14 21:05:58.880 ,1,0,0.,24.0,0.,24.0,1.,24.0,0.,24.0
1980-11-14 21:06:22.880 ,2,1,0.,24.0,0.,24.0,0.,24.0,0.,24.0
1980-11-14 21:06:46.880 ,2,0,0.,24.0,0.,24.0,0.,24.0,0.,24.0
1980-11-14 21:07:10.880 ,3,1,0.,24.0,0.,24.0,1.,24.0,0.,24.0
1980-11-14 21:07:34.880 ,3,0,0.,24.0,0.,24.0,0.,24.0,0.,24.0
1980-11-14 21:07:58.880 ,4,1,0.,24.0,0.,24.0,0.,24.0,0.,24.0
1980-11-14 21:08:22.880 ,4,0,0.,24.0,0.,24.0,0.,24.0,0.,24.0
1980-11-14 21:08:46.880 ,5,1,0.,24.0,0.,24.0,1.,24.0,0.,24.0
1980-11-14 21:09:10.880 ,5,0,0.,24.0,0.,24.0,1.,24.0,0.,24.0
1980-11-14 21:09:34.880 ,6,1,0.,24.0,0.,24.0,1.,24.0,0.,24.0
1980-11-14 21:09:58.880 ,6,0,0.,24.0,0.,24.0,0.,24.0,0.,24.0
1980-11-14 21:10:22.880 ,7,1,2.,24.0,0.,24.0,1.,24.0,0.,24.0
1980-11-14 21:10:46.880 ,7,0,6.,24.0,0.,24.0,0.,24.0,0.,24.0
1980-11-14 21:11:10.880 ,7,1,15.,24.0,0.,24.0,0.,24.0,0.,24.0
1980-11-14 21:11:34.880 ,7,0,9.,24.0,0.,24.0,0.,24.0,0.,24.0
1980-11-14 21:11:58.880 ,6,1,6.,24.0,0.,24.0,0.,24.0,0.,24.0
1980-11-14 21:12:22.880 ,6,0,0.,24.0,0.,24.0,0.,24.0,0.,24.0
1980-11-14 21:12:46.880 ,5,1,0.,24.0,0.,24.0,0.,24.0,0.,24.0
1980-11-14 21:13:10.880 ,5,0,0.,24.0,0.,24.0,0.,24.0,0.,24.0
1980-11-14 21:13:34.880 ,4,1,0.,24.0,0.,24.0,0.,24.0,0.,24.0
1980-11-14 21:13:58.880 ,4,0,0.,24.0,0.,24.0,0.,24.0,0.,24.0
1980-11-14 21:14:22.880 ,3,1,0.,24.0,0.,24.0,0.,24.0,0.,24.0
1980-11-14 21:14:46.880 ,3,0,0.,24.0,0.,24.0,0.,24.0,0.,24.0
1980-11-14 21:15:10.880 ,2,1,0.,24.0,0.,24.0,0.,24.0,0.,24.0
1980-11-14 21:15:34.880 ,2,0,0.,24.0,1.,24.0,0.,24.0,0.,24.0
1980-11-14 21:15:58.880 ,1,1,0.,24.0,0.,24.0,1.,24.0,0.,24.0
1980-11-14 21:16:22.880 ,1,0,0.,24.0,0.,24.0,1.,24.0,0.,24.0
1980-11-14 21:16:46.880 ,0,1,0.,24.0,0.,24.0,1.,24.0,0.,24.0
1980-11-14 21:17:10.880 ,0,0,0.,24.0,0.,24.0,1.,24.0,0.,24.0
1980-11-14 21:17:34.880 ,0,1,0.,24.0,0.,24.0,0.,24.0,0.,24.0
1980-11-14 21:17:58.880 ,0,0,0.,24.0,0.,24.0,0.,24.0,0.,24.0
1980-11-14 21:18:22.880 ,1,1,0.,24.0,0.,24.0,0.,24.0,0.,24.0
1980-11-14 21:18:46.880 ,1,0,0.,24.0,0.,24.0,1.,24.0,0.,24.0
1980-11-14 21:19:10.880 ,2,1,0.,24.0,0.,24.0,0.,24.0,0.,24.0
1980-11-14 21:19:34.880 ,2,0,0.,24.0,0.,24.0,0.,24.0,0.,24.0
1980-11-14 21:20:46.880 ,0,0,0.,24.0,0.,24.0,0.,24.0,0.,24.0
1980-11-14 21:21:10.880 ,0,0,0.,24.0,0.,24.0,0.,24.0,0.,24.0
1980-11-14 21:21:34.880 ,5,1,0.,24.0,0.,24.0,2.,24.0,0.,24.0
1980-11-14 21:21:58.880 ,5,0,0.,24.0,0.,24.0,0.,24.0,0.,24.0
1980-11-14 21:22:22.880 ,6,1,0.,24.0,0.,24.0,0.,24.0,0.,24.0
1980-11-14 21:22:46.880 ,6,0,0.,24.0,0.,24.0,1.,24.0,0.,24.0
1980-11-14 21:23:10.880 ,7,1,2.,24.0,0.,24.0,1.,24.0,0.,24.0
1980-11-14 21:23:34.880 ,7,0,11.,24.0,0.,24.0,0.,24.0,0.,24.0
1980-11-14 21:23:58.880 ,7,1,8.,24.0,0.,24.0,0.,24.0,0.,24.0
1980-11-14 21:24:22.880 ,7,0,7.,24.0,0.,24.0,2.,24.0,0.,24.0
1980-11-14 21:24:46.880 ,6,1,13.,24.0,0.,24.0,0.,24.0,0.,24.0
1980-11-14 21:25:10.880 ,6,0,0.,24.0,0.,24.0,1.,24.0,0.,24.0
1980-11-14 21:25:34.880 ,5,1,0.,24.0,0.,24.0,1.,24.0,0.,24.0
1980-11-14 21:25:58.880 ,5,0,1.,24.0,0.,24.0,0.,24.0,0.,24.0
1980-11-14 21:26:22.880 ,4,1,0.,24.0,0.,24.0,1.,24.0,0.,24.0
1980-11-14 21:26:46.880 ,4,0,0.,24.0,0.,24.0,0.,24.0,0.,24.0
1980-11-14 21:27:10.880 ,3,1,0.,24.0,0.,24.0,0.,24.0,0.,24.0
1980-11-14 21:27:34.880 ,3,0,0.,24.0,0.,24.0,0.,24.0,0.,24.0
1980-11-14 21:27:58.880 ,2,1,0.,24.0,0.,24.0,1.,24.0,0.,24.0
1980-11-14 21:28:22.880 ,2,0,0.,24.0,0.,24.0,0.,24.0,0.,24.0
1980-11-14 21:28:46.880 ,1,1,0.,24.0,0.,24.0,1.,24.0,0.,24.0
1980-11-14 21:29:10.880 ,1,0,0.,24.0,0.,24.0,0.,24.0,0.,24.0
1980-11-14 21:29:34.880 ,0,1,0.,24.0,0.,24.0,0.,24.0,0.,24.0
1980-11-14 21:29:58.880 ,0,0,0.,24.0,0.,24.0,1.,24.0,0.,24.0
1980-11-14 21:30:22.880 ,0,1,0.,24.0,0.,24.0,0.,24.0,0.,24.0
1980-11-14 21:30:46.880 ,0,0,0.,24.0,0.,24.0,0.,24.0,0.,24.0
1980-11-14 21:31:10.880 ,1,1,0.,24.0,0.,24.0,0.,24.0,0.,24.0
1980-11-14 21:31:34.880 ,1,0,1.,24.0,0.,24.0,0.,24.0,0.,24.0
1980-11-14 21:31:58.880 ,2,1,0.,24.0,0.,24.0,0.,24.0,0.,24.0
1980-11-14 21:32:22.880 ,2,0,0.,24.0,0.,24.0,0.,24.0,0.,24.0
1980-11-14 21:32:46.880 ,3,1,0.,24.0,0.,24.0,0.,24.0,0.,24.0
1980-11-14 21:33:10.880 ,3,0,0.,24.0,0.,24.0,0.,24.0,0.,24.0
1980-11-14 21:33:34.880 ,4,1,0.,24.0,0.,24.0,3.,24.0,0.,24.0
1980-11-14 21:33:58.880 ,4,0,0.,24.0,0.,24.0,1.,24.0,0.,24.0
1980-11-14 21:34:22.880 ,0,0,0.,24.0,0.,24.0,0.,24.0,0.,24.0
1980-11-14 21:34:46.880 ,0,0,,0,,0,,0,,0
1980-11-14 21:35:58.880 ,0,0,1.,24.0,0.,24.0,0.,24.0,0.,24.0
1980-11-14 21:36:22.880 ,0,0,10.,24.0,0.,24.0,1.,24.0,0.,24.0
1980-11-14 21:36:46.880 ,7,1,12.,24.0,0.,24.0,0.,24.0,0.,24.0
1980-11-14 21:37:10.880 ,7,0,10.,24.0,0.,24.0,0.,24.0,0.,24.0
1980-11-14 21:37:34.880 ,6,1,3.,24.0,0.,24.0,0.,24.0,0.,24.0
1980-11-14 21:37:58.880 ,6,0,0.,24.0,0.,24.0,0.,24.0,0.,24.0
1980-11-14 21:38:22.880 ,5,1,0.,24.0,0.,24.0,0.,24.0,0.,24.0
1980-11-14 21:38:46.880 ,5,0,0.,24.0,0.,24.0,0.,24.0,0.,24.0
1980-11-14 21:39:10.880 ,4,1,0.,24.0,0.,24.0,0.,24.0,0.,24.0
1980-11-14 21:39:34.880 ,4,0,0.,24.0,0.,24.0,0.,24.0,0.,24.0
1980-11-14 21:39:58.880 ,3,1,0.,24.0,0.,24.0,0.,24.0,0.,24.0
1980-11-14 21:40:22.880 ,3,0,0.,24.0,0.,24.0,0.,24.0,0.,24.0
1980-11-14 21:40:46.880 ,2,1,0.,24.0,0.,24.0,1.,24.0,0.,24.0
1980-11-14 21:41:10.880 ,2,0,0.,24.0,0.,24.0,0.,24.0,0.,24.0
1980-11-14 21:41:34.880 ,1,1,0.,24.0,0.,24.0,1.,24.0,0.,24.0
1980-11-14 21:41:58.880 ,1,0,0.,24.0,0.,24.0,0.,24.0,0.,24.0
1980-11-14 21:42:22.880 ,0,1,0.,24.0,0.,24.0,0.,24.0,0.,24.0
1980-11-14 21:42:46.880 ,0,0,0.,24.0,0.,24.0,0.,24.0,0.,24.0
1980-11-14 21:43:10.880 ,0,1,0.,24.0,0.,24.0,1.,24.0,0.,24.0
1980-11-14 21:43:34.880 ,0,0,0.,24.0,0.,24.0,0.,24.0,0.,24.0
1980-11-14 21:43:58.880 ,1,1,0.,24.0,0.,24.0,0.,24.0,0.,24.0
1980-11-14 21:44:22.880 ,1,0,0.,24.0,0.,24.0,0.,24.0,0.,24.0
1980-11-14 21:44:46.880 ,2,1,0.,24.0,0.,24.0,0.,24.0,0.,24.0
1980-11-14 21:45:10.880 ,2,0,0.,24.0,0.,24.0,0.,24.0,0.,24.0
1980-11-14 21:45:34.880 ,3,1,0.,24.0,0.,24.0,1.,24.0,0.,24.0
1980-11-14 21:45:58.880 ,3,0,0.,24.0,0.,24.0,0.,24.0,0.,24.0
1980-11-14 21:46:22.880 ,4,1,0.,24.0,0.,24.0,0.,24.0,0.,24.0
1980-11-14 21:46:46.880 ,4,0,0.,24.0,0.,24.0,0.,24.0,0.,24.0
1980-11-14 21:47:10.880 ,5,1,0.,24.0,0.,24.0,0.,24.0,0.,24.0
1980-11-14 21:47:34.880 ,5,0,0.,24.0,0.,24.0,0.,24.0,0.,24.0
1980-11-14 21:47:58.880 ,6,1,0.,24.0,0.,24.0,0.,24.0,0.,24.0
1980-11-14 21:48:22.880 ,6,0,0.,24.0,0.,24.0,2.,24.0,0.,24.0
1980-11-14 21:48:46.880 ,7,1,3.,24.0,0.,24.0,0.,24.0,0.,24.0
1980-11-14 21:49:10.880 ,7,0,17.,24.0,0.,24.0,2.,24.0,0.,24.0
1980-11-14 21:49:34.880 ,7,1,8.,24.0,0.,24.0,1.,24.0,0.,24.0
1980-11-14 21:49:58.880 ,7,0,8.,24.0,0.,24.0,1.,24.0,0.,24.0
1980-11-14 21:50:22.880 ,6,1,6.,24.0,0.,24.0,0.,24.0,0.,24.0
1980-11-14 21:50:46.880 ,6,0,0.,24.0,0.,24.0,0.,24.0,0.,24.0
1980-11-14 21:51:10.880 ,5,1,0.,24.0,0.,24.0,0.,24.0,0.,24.0
1980-11-14 21:51:34.880 ,5,0,0.,24.0,0.,24.0,1.,24.0,0.,24.0
1980-11-14 21:51:58.880 ,4,1,0.,24.0,0.,24.0,1.,24.0,0.,24.0
1980-11-14 21:52:22.880 ,4,0,0.,24.0,0.,24.0,0.,24.0,0.,24.0
1980-11-14 21:52:46.880 ,3,1,0.,24.0,0.,24.0,0.,24.0,0.,24.0
1980-11-14 21:53:10.880 ,3,0,0.,24.0,0.,24.0,1.,24.0,0.,24.0
1980-11-14 21:53:34.880 ,2,1,0.,24.0,0.,24.0,0.,24.0,0.,24.0
1980-11-14 21:53:58.880 ,2,0,0.,24.0,1.,24.0,3.,24.0,0.,24.0
1980-11-14 21:54:22.880 ,1,1,0.,24.0,0.,24.0,0.,24.0,0.,24.0
1980-11-14 21:54:46.880 ,1,0,0.,24.0,0.,24.0,0.,24.0,0.,24.0
1980-11-14 21:55:10.880 ,0,1,0.,24.0,0.,24.0,0.,24.0,0.,24.0
1980-11-14 21:55:34.880 ,0,0,0.,24.0,0.,24.0,0.,24.0,0.,24.0
1980-11-14 21:55:58.880 ,0,1,0.,24.0,0.,24.0,1.,24.0,0.,24.0
1980-11-14 21:56:22.880 ,0,0,0.,24.0,0.,24.0,0.,24.0,0.,24.0
1980-11-14 21:56:46.880 ,1,1,1.,24.0,0.,24.0,2.,24.0,0.,24.0
1980-11-14 21:57:10.880 ,1,0,0.,24.0,0.,24.0,1.,24.0,0.,24.0
1980-11-14 21:57:34.880 ,2,1,0.,24.0,0.,24.0,0.,24.0,0.,24.0
1980-11-14 21:57:58.880 ,2,0,0.,24.0,0.,24.0,0.,24.0,0.,24.0
1980-11-14 21:58:22.880 ,3,1,0.,24.0,0.,24.0,1.,24.0,0.,24.0
1980-11-14 21:58:46.880 ,3,0,0.,24.0,0.,24.0,1.,24.0,0.,24.0
1980-11-14 21:59:10.880 ,4,1,0.,24.0,0.,24.0,0.,24.0,0.,24.0
1980-11-14 21:59:34.880 ,4,0,0.,24.0,0.,24.0,0.,24.0,0.,24.0
1980-11-14 21:59:58.880 ,5,1,0.,24.0,0.,24.0,0.,24.0,0.,24.0
1980-11-14 22:00:22.880 ,5,0,0.,24.0,0.,24.0,0.,24.0,0.,24.0
1980-11-14 22:00:46.880 ,6,1,0.,24.0,0.,24.0,0.,24.0,0.,24.0
1980-11-14 22:01:10.880 ,6,0,0.,24.0,0.,24.0,2.,24.0,0.,24.0
1980-11-14 22:01:34.880 ,7,1,3.,24.0,0.,24.0,0.,24.0,0.,24.0
1980-11-14 22:01:58.880 ,7,0,10.,24.0,0.,24.0,0.,24.0,0.,24.0
1980-11-14 22:02:22.880 ,7,1,11.,24.0,0.,24.0,2.,24.0,0.,24.0
1980-11-14 22:02:46.880 ,7,0,13.,24.0,0.,24.0,0.,24.0,0.,24.0
1980-11-14 22:03:10.880 ,6,1,6.,24.0,0.,24.0,0.,24.0,0.,24.0
1980-11-14 22:03:34.880 ,6,0,0.,24.0,0.,24.0,0.,24.0,0.,24.0
1980-11-14 22:03:58.880 ,5,1,0.,24.0,0.,24.0,0.,24.0,0.,24.0
1980-11-14 22:04:22.880 ,5,0,0.,24.0,0.,24.0,0.,24.0,0.,24.0
1980-11-14 22:04:46.880 ,4,1,0.,24.0,0.,24.0,0.,24.0,0.,24.0
1980-11-14 22:05:10.880 ,4,0,0.,24.0,0.,24.0,0.,24.0,0.,24.0
1980-11-14 22:05:34.880 ,3,1,0.,24.0,0.,24.0,0.,24.0,0.,24.0
1980-11-14 22:05:58.880 ,3,0,0.,24.0,0.,24.0,0.,24.0,0.,24.0
1980-11-14 22:06:22.880 ,2,1,0.,24.0,0.,24.0,0.,24.0,0.,24.0
1980-11-14 22:06:46.880 ,2,0,0.,24.0,0.,24.0,0.,24.0,0.,24.0
1980-11-14 22:07:10.880 ,1,1,0.,24.0,0.,24.0,1.,24.0,0.,24.0
1980-11-14 22:07:34.880 ,1,0,0.,24.0,0.,24.0,1.,24.0,0.,24.0
1980-11-14 22:07:58.880 ,0,1,0.,24.0,0.,24.0,0.,24.0,0.,24.0
1980-11-14 22:08:22.880 ,0,0,0.,24.0,0.,24.0,1.,24.0,0.,24.0
1980-11-14 22:08:46.880 ,0,1,0.,24.0,0.,24.0,0.,24.0,0.,24.0
1980-11-14 22:09:10.880 ,0,0,0.,24.0,0.,24.0,0.,24.0,0.,24.0
1980-11-14 22:09:34.880 ,1,1,0.,24.0,0.,24.0,0.,24.0,0.,24.0
1980-11-14 22:09:58.880 ,1,0,0.,24.0,0.,24.0,1.,24.0,0.,24.0
1980-11-14 22:10:22.880 ,2,1,0.,24.0,0.,24.0,0.,24.0,0.,24.0
1980-11-14 22:10:46.880 ,2,0,1.,24.0,0.,24.0,0.,24.0,0.,24.0
1980-11-14 22:11:10.880 ,3,1,0.,24.0,0.,24.0,1.,24.0,0.,24.0
1980-11-14 22:11:34.880 ,3,0,0.,24.0,0.,24.0,2.,24.0,0.,24.0
1980-11-14 22:11:58.880 ,4,1,0.,24.0,0.,24.0,2.,24.0,0.,24.0
1980-11-14 22:12:22.880 ,4,0,0.,24.0,0.,24.0,1.,24.0,0.,24.0
1980-11-14 22:12:46.880 ,5,1,0.,24.0,0.,24.0,0.,24.0,0.,24.0
1980-11-14 22:13:10.880 ,5,0,0.,24.0,0.,24.0,0.,24.0,0.,24.0
1980-11-14 22:13:34.880 ,6,1,0.,24.0,0.,24.0,2.,24.0,0.,24.0
1980-11-14 22:13:58.880 ,6,0,0.,24.0,0.,24.0,0.,24.0,0.,24.0
1980-11-14 22:14:22.880 ,7,1,2.,24.0,0.,24.0,2.,24.0,0.,24.0
1980-11-14 22:14:46.880 ,7,0,7.,24.0,0.,24.0,1.,24.0,0.,24.0
1980-11-14 22:15:10.880 ,7,1,10.,24.0,0.,24.0,0.,24.0,0.,24.0
1980-11-14 22:15:34.880 ,7,0,4.,24.0,0.,24.0,0.,24.0,0.,24.0
1980-11-14 22:15:58.880 ,6,1,6.,24.0,0.,24.0,0.,24.0,0.,24.0
1980-11-14 22:16:22.880 ,6,0,0.,24.0,0.,24.0,0.,24.0,0.,24.0
1980-11-14 22:16:46.880 ,5,1,0.,24.0,0.,24.0,1.,24.0,0.,24.0
1980-11-14 22:17:10.880 ,5,0,0.,24.0,0.,24.0,2.,24.0,0.,24.0
1980-11-14 22:17:34.880 ,4,1,0.,24.0,0.,24.0,0.,24.0,0.,24.0
1980-11-14 22:17:58.880 ,4,0,0.,24.0,0.,24.0,0.,24.0,0.,24.0
1980-11-14 22:18:22.880 ,3,1,0.,24.0,0.,24.0,0.,24.0,0.,24.0
1980-11-14 22:18:46.880 ,3,0,0.,24.0,0.,24.0,0.,24.0,0.,24.0
1980-11-14 22:19:10.880 ,2,1,0.,24.0,0.,24.0,0.,24.0,0.,24.0
1980-11-14 22:19:34.880 ,2,0,0.,24.0,0.,24.0,2.,24.0,0.,24.0
1980-11-14 22:19:58.880 ,1,1,0.,24.0,0.,24.0,1.,24.0,0.,24.0
1980-11-14 22:20:22.880 ,1,0,0.,24.0,0.,24.0,0.,24.0,0.,24.0
1980-11-14 22:20:46.880 ,0,1,0.,24.0,0.,24.0,0.,24.0,0.,24.0
1980-11-14 22:21:10.880 ,0,0,0.,24.0,0.,24.0,1.,24.0,0.,24.0
1980-11-14 22:21:34.880 ,0,1,0.,24.0,0.,24.0,2.,24.0,0.,24.0
1980-11-14 22:21:58.880 ,0,0,0.,24.0,0.,24.0,0.,24.0,0.,24.0
1980-11-14 22:22:22.880 ,1,1,0.,24.0,0.,24.0,1.,24.0,0.,24.0
1980-11-14 22:22:46.880 ,1,0,0.,24.0,0.,24.0,0.,24.0,0.,24.0
1980-11-14 22:23:10.880 ,2,1,0.,24.0,0.,24.0,0.,24.0,0.,24.0
1980-11-14 22:23:34.880 ,2,0,0.,24.0,0.,24.0,0.,24.0,0.,24.0
1980-11-14 22:23:58.880 ,3,1,0.,24.0,0.,24.0,1.,24.0,0.,24.0
1980-11-14 22:24:22.880 ,3,0,0.,24.0,0.,24.0,0.,24.0,0.,24.0
1980-11-14 22:24:46.880 ,4,1,0.,24.0,0.,24.0,1.,24.0,0.,24.0
1980-11-14 22:25:10.880 ,4,0,0.,24.0,0.,24.0,0.,24.0,0.,24.0
1980-11-14 22:25:34.880 ,5,1,0.,24.0,0.,24.0,0.,24.0,0.,24.0
1980-11-14 22:25:58.880 ,5,0,0.,24.0,0.,24.0,0.,24.0,0.,24.0
1980-11-14 22:26:22.880 ,6,1,0.,24.0,0.,24.0,0.,24.0,0.,24.0
1980-11-14 22:26:46.880 ,6,0,0.,24.0,1.,24.0,0.,24.0,0.,24.0
1980-11-14 22:27:10.880 ,7,1,2.,24.0,0.,24.0,0.,24.0,0.,24.0
1980-11-14 22:27:34.880 ,7,0,13.,24.0,0.,24.0,0.,24.0,0.,24.0
1980-11-14 22:27:58.880 ,7,1,11.,24.0,0.,24.0,0.,24.0,0.,24.0
1980-11-14 22:28:22.880 ,7,0,8.,24.0,0.,24.0,1.,24.0,0.,24.0
1980-11-14 22:28:46.880 ,6,1,4.,24.0,0.,24.0,1.,24.0,0.,24.0
1980-11-14 22:29:10.880 ,6,0,0.,24.0,0.,24.0,0.,24.0,0.,24.0
1980-11-14 22:29:34.880 ,5,1,0.,24.0,0.,24.0,1.,24.0,0.,24.0
1980-11-14 22:29:58.880 ,5,0,0.,24.0,0.,24.0,1.,24.0,0.,24.0
1980-11-14 22:30:22.880 ,4,1,0.,24.0,0.,24.0,0.,24.0,0.,24.0
1980-11-14 22:30:46.880 ,4,0,0.,24.0,0.,24.0,0.,24.0,0.,24.0
1980-11-14 22:31:10.880 ,3,1,0.,24.0,0.,24.0,2.,24.0,0.,24.0
1980-11-14 22:31:34.880 ,3,0,0.,24.0,0.,24.0,0.,24.0,0.,24.0
1980-11-14 22:31:58.880 ,2,1,0.,24.0,1.,24.0,2.,24.0,0.,24.0
1980-11-14 22:32:22.880 ,2,0,0.,24.0,0.,24.0,0.,24.0,0.,24.0
1980-11-14 22:32:46.880 ,1,1,0.,24.0,0.,24.0,0.,24.0,0.,24.0
1980-11-14 22:33:10.880 ,1,0,0.,24.0,0.,24.0,0.,24.0,0.,24.0
1980-11-14 22:33:34.880 ,0,1,0.,24.0,0.,24.0,0.,24.0,0.,24.0
1980-11-14 22:33:58.880 ,0,0,0.,24.0,0.,24.0,0.,24.0,0.,24.0
1980-11-14 22:34:22.880 ,0,1,0.,24.0,0.,24.0,2.,24.0,0.,24.0
1980-11-14 22:34:46.880 ,0,0,0.,24.0,0.,24.0,2.,24.0,0.,24.0
1980-11-14 22:35:10.880 ,1,1,0.,24.0,0.,24.0,1.,24.0,0.,24.0
1980-11-14 22:35:34.880 ,1,0,0.,24.0,0.,24.0,1.,24.0,0.,24.0
1980-11-14 22:35:58.880 ,2,1,0.,24.0,0.,24.0,2.,24.0,0.,24.0
1980-11-14 22:36:22.880 ,2,0,0.,24.0,0.,24.0,0.,24.0,0.,24.0
1980-11-14 22:36:46.880 ,3,1,0.,24.0,0.,24.0,0.,24.0,0.,24.0
1980-11-14 22:37:10.880 ,3,0,0.,24.0,0.,24.0,0.,24.0,0.,24.0
1980-11-14 22:37:34.880 ,4,1,0.,24.0,0.,24.0,0.,24.0,0.,24.0
1980-11-14 22:37:58.880 ,4,0,0.,24.0,0.,24.0,0.,24.0,0.,24.0
1980-11-14 22:38:22.880 ,5,1,0.,24.0,0.,24.0,0.,24.0,0.,24.0
1980-11-14 22:38:46.880 ,5,0,0.,24.0,0.,24.0,0.,24.0,0.,24.0
1980-11-14 22:39:10.880 ,6,1,0.,24.0,0.,24.0,2.,24.0,0.,24.0
1980-11-14 22:39:34.880 ,6,0,0.,24.0,0.,24.0,0.,24.0,0.,24.0
1980-11-14 22:39:58.880 ,7,1,2.,24.0,0.,24.0,0.,24.0,0.,24.0
1980-11-14 22:40:22.880 ,7,0,11.,24.0,0.,24.0,0.,24.0,0.,24.0
1980-11-14 22:40:46.880 ,7,1,13.,24.0,0.,24.0,0.,24.0,0.,24.0
1980-11-14 22:41:10.880 ,7,0,10.,24.0,0.,24.0,1.,24.0,0.,24.0
1980-11-14 22:41:34.880 ,6,1,2.,24.0,0.,24.0,0.,24.0,0.,24.0
1980-11-14 22:41:58.880 ,6,0,0.,24.0,0.,24.0,1.,24.0,0.,24.0
1980-11-14 22:42:22.880 ,5,1,0.,24.0,0.,24.0,1.,24.0,0.,24.0
1980-11-14 22:42:46.880 ,5,0,0.,24.0,0.,24.0,0.,24.0,0.,24.0
1980-11-14 22:43:10.880 ,4,1,0.,24.0,0.,24.0,0.,24.0,0.,24.0
1980-11-14 22:43:34.880 ,4,0,0.,24.0,0.,24.0,0.,24.0,0.,24.0
1980-11-14 22:43:58.880 ,3,1,0.,24.0,0.,24.0,1.,24.0,0.,24.0
1980-11-14 22:44:22.880 ,3,0,0.,24.0,0.,24.0,0.,24.0,0.,24.0
1980-11-14 22:44:46.880 ,2,1,0.,24.0,0.,24.0,0.,24.0,0.,24.0
1980-11-14 22:45:10.880 ,2,0,0.,24.0,0.,24.0,0.,24.0,0.,24.0
1980-11-14 22:45:34.880 ,1,1,0.,24.0,0.,24.0,0.,24.0,0.,24.0
1980-11-14 22:45:58.880 ,1,0,0.,24.0,0.,24.0,0.,24.0,0.,24.0
1980-11-14 22:46:22.880 ,0,1,0.,24.0,0.,24.0,1.,24.0,0.,24.0
1980-11-14 22:46:46.880 ,0,0,1.,24.0,0.,24.0,0.,24.0,0.,24.0
1980-11-14 22:47:10.880 ,0,1,0.,24.0,0.,24.0,1.,24.0,0.,24.0
1980-11-14 22:47:34.880 ,0,0,0.,24.0,0.,24.0,0.,24.0,0.,24.0
1980-11-14 22:47:58.880 ,1,1,0.,24.0,0.,24.0,0.,24.0,0.,24.0
1980-11-14 22:48:22.880 ,1,0,0.,24.0,0.,24.0,0.,24.0,0.,24.0
1980-11-14 22:48:46.880 ,2,1,0.,24.0,0.,24.0,0.,24.0,0.,24.0
1980-11-14 22:49:10.880 ,2,0,0.,24.0,0.,24.0,1.,24.0,0.,24.0
1980-11-14 22:49:34.880 ,3,1,0.,24.0,0.,24.0,0.,24.0,0.,24.0
1980-11-14 22:49:58.880 ,3,0,0.,24.0,0.,24.0,1.,24.0,0.,24.0
1980-11-14 22:50:22.880 ,4,1,0.,24.0,0.,24.0,0.,24.0,0.,24.0
1980-11-14 22:50:46.880 ,4,0,0.,24.0,0.,24.0,0.,24.0,0.,24.0
1980-11-14 22:51:10.880 ,5,1,0.,24.0,0.,24.0,0.,24.0,0.,24.0
1980-11-14 22:51:34.880 ,5,0,0.,24.0,0.,24.0,0.,24.0,0.,24.0
1980-11-14 22:51:58.880 ,6,1,0.,24.0,0.,24.0,2.,24.0,0.,24.0
1980-11-14 22:52:22.880 ,6,0,0.,24.0,0.,24.0,0.,24.0,0.,24.0
1980-11-14 22:52:46.880 ,7,1,3.,24.0,0.,24.0,0.,24.0,0.,24.0
1980-11-14 22:53:10.880 ,7,0,3.,24.0,0.,24.0,0.,24.0,0.,24.0
1980-11-14 22:53:34.880 ,7,1,8.,24.0,0.,24.0,0.,24.0,0.,24.0
1980-11-14 22:53:58.880 ,7,0,14.,24.0,0.,24.0,0.,24.0,0.,24.0
1980-11-14 22:54:22.880 ,6,1,8.,24.0,0.,24.0,1.,24.0,0.,24.0
1980-11-14 22:54:46.880 ,6,0,0.,24.0,0.,24.0,0.,24.0,0.,24.0
1980-11-14 22:55:10.880 ,5,1,0.,24.0,0.,24.0,1.,24.0,0.,24.0
1980-11-14 22:55:34.880 ,5,0,0.,24.0,0.,24.0,3.,24.0,0.,24.0
1980-11-14 22:55:58.880 ,4,1,1.,24.0,0.,24.0,1.,24.0,0.,24.0
1980-11-14 22:56:22.880 ,4,0,0.,24.0,0.,24.0,0.,24.0,0.,24.0
1980-11-14 22:56:46.880 ,3,1,0.,24.0,0.,24.0,0.,24.0,0.,24.0
1980-11-14 22:57:10.880 ,3,0,0.,24.0,0.,24.0,0.,24.0,0.,24.0
1980-11-14 22:57:34.880 ,2,1,0.,24.0,0.,24.0,0.,24.0,0.,24.0
1980-11-14 22:57:58.880 ,2,0,0.,24.0,0.,24.0,0.,24.0,0.,24.0
1980-11-14 22:58:22.880 ,1,1,0.,24.0,0.,24.0,0.,24.0,0.,24.0
1980-11-14 22:58:46.880 ,1,0,0.,24.0,0.,24.0,0.,24.0,0.,24.0
1980-11-14 22:59:10.880 ,0,1,0.,24.0,0.,24.0,0.,24.0,0.,24.0
1980-11-14 22:59:34.880 ,0,0,0.,24.0,0.,24.0,0.,24.0,0.,24.0
1980-11-14 22:59:58.880 ,0,1,0.,24.0,0.,24.0,1.,24.0,0.,24.0
1980-11-14 23:00:22.880 ,0,0,0.,24.0,0.,24.0,0.,24.0,0.,24.0
1980-11-14 23:00:46.880 ,1,1,0.,24.0,0.,24.0,0.,24.0,0.,24.0
1980-11-14 23:01:10.880 ,1,0,0.,24.0,0.,24.0,0.,24.0,0.,24.0
1980-11-14 23:01:34.880 ,2,1,0.,24.0,0.,24.0,1.,24.0,0.,24.0
1980-11-14 23:01:58.880 ,2,0,,0,,0,,0,,0
1980-11-14 23:02:22.880 ,3,1,0.,24.0,0.,24.0,0.,24.0,0.,24.0
1980-11-14 23:02:46.880 ,3,0,0.,24.0,0.,24.0,0.,24.0,0.,24.0
1980-11-14 23:03:10.880 ,4,1,0.,24.0,0.,24.0,0.,24.0,0.,24.0
1980-11-14 23:03:34.880 ,4,0,0.,24.0,0.,24.0,0.,24.0,0.,24.0
1980-11-14 23:03:58.880 ,5,1,0.,24.0,0.,24.0,0.,24.0,0.,24.0
1980-11-14 23:04:22.880 ,5,0,0.,24.0,0.,24.0,1.,24.0,0.,24.0
1980-11-14 23:04:46.880 ,6,1,0.,24.0,0.,24.0,1.,24.0,0.,24.0
1980-11-14 23:05:10.880 ,6,0,0.,24.0,0.,24.0,1.,24.0,0.,24.0
1980-11-14 23:05:34.880 ,7,1,2.,24.0,0.,24.0,0.,24.0,0.,24.0
1980-11-14 23:05:58.880 ,7,0,11.,24.0,0.,24.0,1.,24.0,0.,24.0
1980-11-14 23:06:22.880 ,7,1,7.,24.0,0.,24.0,0.,24.0,0.,24.0
1980-11-14 23:06:46.880 ,7,0,4.,24.0,0.,24.0,2.,24.0,0.,24.0
1980-11-14 23:07:10.880 ,6,1,4.,24.0,0.,24.0,0.,24.0,0.,24.0
1980-11-14 23:07:34.880 ,6,0,0.,24.0,0.,24.0,0.,24.0,0.,24.0
1980-11-14 23:07:58.880 ,5,1,0.,24.0,0.,24.0,0.,24.0,0.,24.0
1980-11-14 23:08:22.880 ,5,0,0.,24.0,0.,24.0,0.,24.0,0.,24.0
1980-11-14 23:08:46.880 ,4,1,0.,24.0,0.,24.0,0.,24.0,0.,24.0
1980-11-14 23:09:10.880 ,4,0,0.,24.0,0.,24.0,0.,24.0,0.,24.0
1980-11-14 23:09:34.880 ,3,1,0.,24.0,0.,24.0,3.,24.0,0.,24.0
1980-11-14 23:09:58.880 ,3,0,0.,24.0,0.,24.0,0.,24.0,0.,24.0
1980-11-14 23:10:22.880 ,2,1,0.,24.0,0.,24.0,0.,24.0,0.,24.0
1980-11-14 23:10:46.880 ,2,0,0.,24.0,0.,24.0,0.,24.0,0.,24.0
1980-11-14 23:11:10.880 ,1,1,0.,24.0,0.,24.0,0.,24.0,0.,24.0
1980-11-14 23:11:34.880 ,1,0,0.,24.0,0.,24.0,0.,24.0,0.,24.0
1980-11-14 23:11:58.880 ,0,1,0.,24.0,0.,24.0,0.,24.0,0.,24.0
1980-11-14 23:12:22.880 ,0,0,0.,24.0,0.,24.0,0.,24.0,0.,24.0
1980-11-14 23:12:46.880 ,0,1,0.,24.0,0.,24.0,0.,24.0,0.,24.0
1980-11-14 23:13:10.880 ,0,0,0.,24.0,0.,24.0,0.,24.0,0.,24.0
1980-11-14 23:13:34.880 ,1,1,0.,24.0,0.,24.0,0.,24.0,0.,24.0
1980-11-14 23:13:58.880 ,1,0,0.,24.0,0.,24.0,1.,24.0,0.,24.0
1980-11-14 23:14:22.880 ,2,1,0.,24.0,0.,24.0,0.,24.0,0.,24.0
1980-11-14 23:14:46.880 ,2,0,0.,24.0,0.,24.0,1.,24.0,0.,24.0
1980-11-14 23:15:10.880 ,3,1,0.,24.0,0.,24.0,0.,24.0,0.,24.0
1980-11-14 23:15:34.880 ,3,0,0.,24.0,0.,24.0,0.,24.0,0.,24.0
1980-11-14 23:15:58.880 ,4,1,0.,24.0,0.,24.0,0.,24.0,0.,24.0
1980-11-14 23:16:22.880 ,4,0,0.,24.0,0.,24.0,2.,24.0,0.,24.0
1980-11-14 23:16:46.880 ,5,1,0.,24.0,0.,24.0,0.,24.0,0.,24.0
1980-11-14 23:17:10.880 ,5,0,0.,24.0,0.,24.0,0.,24.0,0.,24.0
1980-11-14 23:17:34.880 ,6,1,0.,24.0,1.,24.0,0.,24.0,0.,24.0
1980-11-14 23:17:58.880 ,6,0,0.,24.0,0.,24.0,0.,24.0,0.,24.0
1980-11-14 23:18:22.880 ,7,1,1.,24.0,1.,24.0,0.,24.0,0.,24.0
1980-11-14 23:18:46.880 ,7,0,6.,24.0,0.,24.0,0.,24.0,0.,24.0
1980-11-14 23:19:10.880 ,7,1,12.,24.0,0.,24.0,0.,24.0,0.,24.0
1980-11-14 23:19:34.880 ,7,0,10.,24.0,0.,24.0,0.,24.0,0.,24.0
1980-11-14 23:19:58.880 ,6,1,11.,24.0,0.,24.0,0.,24.0,0.,24.0
1980-11-14 23:20:22.880 ,6,0,0.,24.0,0.,24.0,1.,24.0,0.,24.0
1980-11-14 23:20:46.880 ,5,1,0.,24.0,0.,24.0,1.,24.0,0.,24.0
1980-11-14 23:21:10.880 ,5,0,0.,24.0,0.,24.0,2.,24.0,0.,24.0
1980-11-14 23:21:34.880 ,4,1,0.,24.0,0.,24.0,0.,24.0,0.,24.0
1980-11-14 23:21:58.880 ,4,0,0.,24.0,0.,24.0,1.,24.0,0.,24.0
1980-11-14 23:22:22.880 ,3,1,0.,24.0,0.,24.0,0.,24.0,0.,24.0
1980-11-14 23:22:46.880 ,3,0,0.,24.0,0.,24.0,0.,24.0,0.,24.0
1980-11-14 23:23:10.880 ,2,1,0.,24.0,0.,24.0,0.,24.0,0.,24.0
1980-11-14 23:23:34.880 ,2,0,0.,24.0,0.,24.0,0.,24.0,0.,24.0
1980-11-14 23:23:58.880 ,1,1,0.,24.0,0.,24.0,1.,24.0,0.,24.0
1980-11-14 23:24:22.880 ,1,0,0.,24.0,0.,24.0,2.,24.0,0.,24.0
1980-11-14 23:24:46.880 ,0,1,0.,24.0,0.,24.0,0.,24.0,0.,24.0
1980-11-14 23:25:10.880 ,0,0,0.,24.0,0.,24.0,1.,24.0,0.,24.0
1980-11-14 23:25:34.880 ,0,1,1.,24.0,0.,24.0,1.,24.0,0.,24.0
1980-11-14 23:25:58.880 ,0,0,0.,24.0,0.,24.0,0.,24.0,0.,24.0
1980-11-14 23:26:22.880 ,1,1,0.,24.0,0.,24.0,1.,24.0,0.,24.0
1980-11-14 23:26:46.880 ,1,0,0.,24.0,0.,24.0,0.,24.0,0.,24.0
1980-11-14 23:27:10.880 ,2,1,0.,24.0,0.,24.0,0.,24.0,0.,24.0
1980-11-14 23:27:34.880 ,2,0,0.,24.0,0.,24.0,2.,24.0,0.,24.0
1980-11-14 23:27:58.880 ,3,1,0.,24.0,0.,24.0,0.,24.0,0.,24.0
1980-11-14 23:28:22.880 ,3,0,0.,24.0,0.,24.0,1.,24.0,0.,24.0
1980-11-14 23:28:46.880 ,4,1,0.,24.0,0.,24.0,0.,24.0,0.,24.0
1980-11-14 23:29:10.880 ,4,0,0.,24.0,0.,24.0,1.,24.0,0.,24.0
1980-11-14 23:29:34.880 ,5,1,0.,24.0,0.,24.0,0.,24.0,0.,24.0
1980-11-14 23:29:58.880 ,5,0,0.,24.0,0.,24.0,1.,24.0,0.,24.0
1980-11-14 23:30:22.880 ,6,1,0.,24.0,0.,24.0,0.,24.0,0.,24.0
1980-11-14 23:30:46.880 ,6,0,0.,24.0,0.,24.0,1.,24.0,0.,24.0
1980-11-14 23:31:10.880 ,7,1,0.,24.0,0.,24.0,1.,24.0,0.,24.0
1980-11-14 23:31:34.880 ,7,0,8.,24.0,0.,24.0,0.,24.0,0.,24.0
1980-11-14 23:31:58.880 ,7,1,7.,24.0,0.,24.0,0.,24.0,0.,24.0
1980-11-14 23:32:22.880 ,7,0,10.,24.0,0.,24.0,0.,24.0,0.,24.0
1980-11-14 23:32:46.880 ,6,1,4.,24.0,0.,24.0,2.,24.0,0.,24.0
1980-11-14 23:33:10.880 ,6,0,0.,24.0,0.,24.0,0.,24.0,0.,24.0
1980-11-14 23:33:34.880 ,5,1,0.,24.0,0.,24.0,1.,24.0,0.,24.0
1980-11-14 23:33:58.880 ,5,0,0.,24.0,0.,24.0,0.,24.0,0.,24.0
1980-11-14 23:34:22.880 ,4,1,0.,24.0,0.,24.0,1.,24.0,0.,24.0
1980-11-14 23:34:46.880 ,4,0,0.,24.0,0.,24.0,3.,24.0,0.,24.0
1980-11-14 23:35:10.880 ,3,1,0.,24.0,0.,24.0,0.,24.0,0.,24.0
1980-11-14 23:35:34.880 ,3,0,0.,24.0,0.,24.0,0.,24.0,0.,24.0
1980-11-14 23:35:58.880 ,2,1,0.,24.0,0.,24.0,0.,24.0,0.,24.0